BATSU-CS1 (IRAZU)

Last updated on Sat Mar 07 2020 00:02:10 GMT+0000 (Coordinated Universal Time)

1 43468U 98067NR 20064.05831928 .04860327 12102-4 10158-2 0 9990 2 43468 51.6208 66.1430 0002240 149.8670 210.2481 16.30203714203978

Satellite not in orbit

BATSU-CS1 (IRAZU)